Location: Unspecified
(0.0000°N, 0.0000°E)
Time: 18:30:07
(UTC+00:00)

deb Delta 126 - Pass Details

Date: 23 February 2026
Orbit: 1485 x 1545 km, 102.1° (Epoch: 6 March)

Event Time Altitude Azimuth Distance (km) Brightness Sun altitude
Rises 04:16:08 0° 356° (N) 4,657 ? -28.8°
Reaches altitude 10° 04:19:19 10° 347° (NNW) 3,669 ? -28.1°
Enters shadow 04:19:48 12° 345° (NNW) 3,526 ? -27.9°
Exits shadow 04:35:53 - 221° (SW) 4,183 ? -24.0°
Sets 04:37:16 0° 217° (SW) 4,619 ? -23.7°
